Pine Bluff, AR

6:15 AM CDT on April 27, 2017 (GMT -0500)
Grider

Weather History for KPBF - March, 2014

Change the Weather History Date:

Friday, March 28, 2014

  Actual Average Record
Temperature  
Mean Temperature 65 °F 58 °F  
Max Temperature 72 °F 69 °F 92 °F (1918)
Min Temperature 57 °F 47 °F 27 °F (1937)
Degree Days  
Heating Degree Days 0 8  
Month to date heating degree days 455 325  
Since 1 July heating degree days 3224 2713  
Cooling Degree Days 0 1  
Month to date cooling degree days 0 13  
Year to date cooling degree days 0 16  
Growing Degree Days 15 (Base 50)    
Moisture  
Dew Point 60 °F    
Average Humidity 87    
Maximum Humidity 100    
Minimum Humidity 73    
Precipitation  
Precipitation 0.69 in 0.17 in 4.08 in (1946)
Month to date precipitation 4.45 4.89  
Year to date precipitation 9.88 12.71  
Snow  
Snow 0.00 in 0.00 in - ()
Month to date snowfall T 0.0  
Since 1 July snowfall 3.7 3.1  
Snow Depth 0.00 in    
Sea Level Pressure  
Sea Level Pressure 29.88 in    
Wind  
Wind Speed 8 mph (ENE)    
Max Wind Speed 21 mph    
Max Gust Speed 25 mph    
Visibility 8 miles    
Events Rain , Thunderstorm    
T = Trace of Precipitation, MM = Missing Value Source: NWS Daily Summary

Daily Weather History Graph

Daily Weather History Graph

Search for Another Location

Airport or City:

Trip Planner

Search our weather history database for the weather conditions in past years. The results will help you decide how hot, cold, wet, or windy it might be!

Date:

Astronomy

Mar. 28, 2014 Rise Set
Actual Time 7:00 AM CDT 7:25 PM CDT
Civil Twilight 6:35 AM CDT 7:50 PM CDT
Nautical Twilight 6:05 AM CDT 8:20 PM CDT
Astronomical Twilight 5:35 AM CDT 8:50 PM CDT
Moon 5:25 AM CDT (3/28) 5:27 PM CDT (3/28)
Length of Visible Light 13h 15m
Length of Day
12h 25m
Waning Crescent, 6% of the Moon is Illuminated
Mar 28
Waning Crescent
Mar 30
New
Apr 7
First Quarter
Apr 15
Full
Apr 22
Last Quarter

Hourly Weather History & Observations

Time (CDT) Temp. Dew Point Humidity Pressure Visibility Wind Dir Wind Speed Gust Speed Precip Events Conditions
12:53 AM 62.1 °F 59.0 °F 90% 29.85 in 10.0 mi SSW 11.5 mph - 0.00 in Rain Light Rain
1:53 AM 62.1 °F 59.0 °F 90% 29.85 in 10.0 mi South 8.1 mph - 0.00 in   Overcast
2:53 AM 60.1 °F 57.9 °F 93% 29.83 in 10.0 mi South 12.7 mph - N/A   Clear
3:53 AM 61.0 °F 59.0 °F 93% 29.84 in 10.0 mi WSW 4.6 mph - N/A   Mostly Cloudy
4:20 AM 60.8 °F 59.0 °F 94% 29.83 in 10.0 mi South 9.2 mph - N/A   Mostly Cloudy
4:53 AM 60.1 °F 59.0 °F 96% 29.83 in 10.0 mi South 6.9 mph - N/A   Overcast
5:53 AM 61.0 °F 59.0 °F 93% 29.85 in 10.0 mi South 4.6 mph - N/A   Overcast
6:37 AM 60.8 °F 59.0 °F 94% 29.88 in 10.0 mi Calm Calm - N/A   Overcast
6:53 AM 60.1 °F 59.0 °F 96% 29.88 in 10.0 mi ENE 3.5 mph - N/A   Overcast
7:53 AM 60.1 °F 59.0 °F 96% 29.91 in 9.0 mi Calm Calm - N/A   Overcast
8:46 AM 60.8 °F 59.0 °F 94% 29.92 in 2.0 mi SE 5.8 mph - N/A   Overcast
8:53 AM 61.0 °F 60.1 °F 97% 29.91 in 2.0 mi ESE 5.8 mph - N/A   Overcast
9:06 AM 62.6 °F 60.8 °F 94% 29.91 in 1.8 mi SE 6.9 mph - N/A   Overcast
9:18 AM 62.6 °F 60.8 °F 94% 29.91 in 2.0 mi SE 4.6 mph - N/A   Overcast
9:40 AM 62.6 °F 60.8 °F 94% 29.92 in 6.0 mi South 3.5 mph - N/A   Overcast
9:53 AM 63.0 °F 61.0 °F 93% 29.91 in 9.0 mi SSE 3.5 mph - N/A   Overcast
10:53 AM 66.0 °F 62.1 °F 87% 29.92 in 10.0 mi Calm Calm - N/A   Overcast
11:01 AM 64.4 °F 60.8 °F 88% 29.92 in 10.0 mi Calm Calm - N/A   Overcast
11:53 AM 68.0 °F 63.0 °F 84% 29.91 in 10.0 mi ENE 5.8 mph - N/A   Overcast
12:08 PM 68.0 °F 62.6 °F 83% 29.91 in 10.0 mi Calm Calm - N/A   Overcast
12:53 PM 69.1 °F 63.0 °F 81% 29.90 in 10.0 mi NE 4.6 mph - N/A   Overcast
1:20 PM 71.6 °F 62.6 °F 73% 29.89 in 10.0 mi East 5.8 mph - N/A   Mostly Cloudy
1:53 PM 71.1 °F 63.0 °F 75% 29.87 in 10.0 mi ESE 8.1 mph - N/A   Overcast
2:53 PM 70.0 °F 63.0 °F 78% 29.86 in 10.0 mi SSE 8.1 mph - N/A   Mostly Cloudy
3:16 PM 69.8 °F 62.6 °F 78% 29.86 in 10.0 mi SSE 5.8 mph - N/A   Mostly Cloudy
3:50 PM 68.0 °F 62.6 °F 83% 29.83 in 10.0 mi Calm Calm - N/A Thunderstorm Mostly Cloudy
3:53 PM 68.0 °F 63.0 °F 84% 29.83 in 10.0 mi West 4.6 mph - N/A Thunderstorm Mostly Cloudy
4:50 PM 66.2 °F 62.6 °F 88% 29.84 in 10.0 mi North 13.8 mph - 0.03 in Thunderstorm Mostly Cloudy
4:53 PM 66.0 °F 63.0 °F 90% 29.84 in 10.0 mi North 15.0 mph 21.9 mph 0.03 in Thunderstorm Overcast
4:58 PM 64.4 °F 62.6 °F 94% 29.85 in 10.0 mi North 12.7 mph 21.9 mph N/A   Mostly Cloudy
5:31 PM 64.4 °F 59.0 °F 83% 29.84 in 10.0 mi NNE 12.7 mph - N/A   Overcast
5:53 PM 63.0 °F 59.0 °F 87% 29.84 in 10.0 mi NNE 12.7 mph - N/A   Mostly Cloudy
6:12 PM 62.6 °F 57.2 °F 82% 29.84 in 10.0 mi NE 11.5 mph - N/A   Partly Cloudy
6:53 PM 63.0 °F 57.9 °F 84% 29.83 in 10.0 mi ENE 9.2 mph - N/A   Clear
7:25 PM 62.6 °F 57.2 °F 82% 29.84 in 10.0 mi North 6.9 mph - N/A Thunderstorm Scattered Clouds
7:53 PM 62.1 °F 57.0 °F 84% 29.88 in 10.0 mi Variable 4.6 mph - 0.01 in Rain , Thunderstorm Light Thunderstorms and Rain
8:12 PM 60.8 °F 57.2 °F 88% 29.89 in 9.0 mi North 10.4 mph - 0.02 in Rain , Thunderstorm Rain
8:53 PM 61.0 °F 57.9 °F 90% 29.95 in 6.0 mi NNE 8.1 mph - 0.16 in Rain , Thunderstorm Heavy Thunderstorms and Rain
9:04 PM 60.8 °F 59.0 °F 94% 29.95 in 5.0 mi NNE 10.4 mph - 0.06 in Rain , Thunderstorm Heavy Rain
9:18 PM 60.8 °F 57.2 °F 88% 29.96 in 5.0 mi North 13.8 mph - 0.15 in Rain , Thunderstorm Heavy Thunderstorms and Rain
9:30 PM 60.8 °F 57.2 °F 88% 29.96 in 2.5 mi North 11.5 mph - 0.29 in Rain , Thunderstorm Heavy Rain
9:36 PM 60.8 °F 57.2 °F 88% 29.96 in 2.5 mi NNE 12.7 mph - 0.32 in Rain Heavy Rain
9:43 PM 60.8 °F 57.2 °F 88% 29.95 in 5.0 mi NE 12.7 mph - 0.34 in Rain Rain
9:53 PM 60.1 °F 57.9 °F 93% 29.93 in 5.0 mi ENE 10.4 mph - 0.38 in Rain Heavy Rain
10:03 PM 60.8 °F 57.2 °F 88% 29.92 in 9.0 mi ENE 11.5 mph - 0.03 in Rain , Thunderstorm Rain
10:29 PM 60.8 °F 57.2 °F 88% 29.87 in 10.0 mi East 12.7 mph - 0.08 in Rain Rain
10:53 PM 59.0 °F 57.0 °F 93% 29.84 in 10.0 mi East 17.3 mph - 0.11 in Rain Light Rain
11:27 PM 59.0 °F 55.4 °F 88% 29.91 in 10.0 mi North 4.6 mph - 0.00 in   Mostly Cloudy
11:51 PM 59.0 °F 57.2 °F 94% 29.91 in 10.0 mi NNW 12.7 mph - 0.00 in   Partly Cloudy
11:53 PM 59.0 °F 57.0 °F 93% 29.91 in 10.0 mi NNW 11.5 mph - 0.00 in   Partly Cloudy